Time,TemperatureF,DewpointF,PressureIn,WindDirection,WindDirectionDegrees,WindSpeedMPH,WindSpeedGustMPH,Humidity,HourlyPrecipIn,Conditions,Clouds,dailyrainin,SoftwareType,DateUTC
2013-07-29 00:00:00,75.9,36.6,0.00,SSW,210,2.7,6.3,24,0.00,,---,0.00,VWS V13.01,2013-07-29 07:00:00,
2013-07-29 00:20:00,76.1,35.7,0.00,WSW,244,3.6,8.1,23,0.00,,---,0.00,VWS V13.01,2013-07-29 07:20:00,
2013-07-29 00:40:00,76.1,34.5,0.00,SW,226,0.0,8.1,22,0.00,,---,0.00,VWS V13.01,2013-07-29 07:40:00,
2013-07-29 01:00:00,75.6,34.1,0.00,SSW,203,0.0,9.6,22,0.00,,---,0.00,VWS V13.01,2013-07-29 08:00:00,
2013-07-29 01:20:00,75.2,33.8,0.00,SW,221,0.0,6.3,22,0.00,,---,0.00,VWS V13.01,2013-07-29 08:20:00,
2013-07-29 01:40:00,74.7,34.4,0.00,SE,137,0.0,5.4,23,0.00,,---,0.00,VWS V13.01,2013-07-29 08:40:00,
2013-07-29 02:00:00,74.3,34.1,0.00,SSE,159,0.0,6.3,23,0.00,,---,0.00,VWS V13.01,2013-07-29 09:00:00,
2013-07-29 02:20:00,73.4,40.1,0.00,North,7,0.0,0.0,30,0.00,,---,0.00,VWS V13.01,2013-07-29 09:20:00,
2013-07-29 02:40:00,72.9,36.0,0.00,SSW,204,2.7,4.0,26,0.00,,---,0.00,VWS V13.01,2013-07-29 09:40:00,
2013-07-29 03:00:00,73.6,33.5,0.00,WNW,301,0.0,7.6,23,0.00,,---,0.00,VWS V13.01,2013-07-29 10:00:00,
2013-07-29 03:20:00,72.0,41.3,0.00,North,353,0.0,6.3,33,0.00,,---,0.00,VWS V13.01,2013-07-29 10:20:00,
2013-07-29 03:40:00,70.9,42.6,0.00,SW,222,0.0,5.8,36,0.00,,---,0.00,VWS V13.01,2013-07-29 10:40:00,
2013-07-29 04:00:00,70.7,42.5,0.00,SE,133,0.0,4.9,36,0.00,,---,0.00,VWS V13.01,2013-07-29 11:00:00,
2013-07-29 04:20:00,70.7,41.7,0.00,SE,133,0.0,0.0,35,0.00,,---,0.00,VWS V13.01,2013-07-29 11:20:00,
2013-07-29 04:40:00,69.6,44.9,0.00,SE,135,0.0,0.0,41,0.00,,---,0.00,VWS V13.01,2013-07-29 11:40:00,
2013-07-29 05:00:00,68.7,46.0,0.00,North,7,0.0,0.0,44,0.00,,---,0.00,VWS V13.01,2013-07-29 12:00:00,
2013-07-29 05:20:00,68.5,48.1,0.00,SW,230,0.0,4.9,48,0.00,,---,0.00,VWS V13.01,2013-07-29 12:20:00,
2013-07-29 05:40:00,68.2,50.4,0.00,ESE,109,4.5,5.4,53,0.00,,---,0.00,VWS V13.01,2013-07-29 12:40:00,
2013-07-29 06:00:00,68.2,50.9,0.00,WNW,293,0.0,5.4,54,0.00,,---,0.00,VWS V13.01,2013-07-29 13:00:00,
2013-07-29 06:40:00,68.9,52.1,0.00,NW,321,0.0,0.0,55,0.00,,---,0.00,VWS V13.01,2013-07-29 13:40:00,
2013-07-29 07:00:00,69.6,50.7,0.00,NE,53,2.7,5.4,51,0.00,,---,0.00,VWS V13.01,2013-07-29 14:00:00,
2013-07-29 07:20:00,70.7,52.2,0.00,North,10,4.9,6.3,52,0.00,,---,0.00,VWS V13.01,2013-07-29 14:20:00,
2013-07-29 07:40:00,71.6,51.5,0.00,NNE,33,4.5,5.8,49,0.00,,---,0.00,VWS V13.01,2013-07-29 14:40:00,
2013-07-29 08:00:00,73.0,49.9,0.00,ENE,77,3.1,5.8,44,0.00,,---,0.00,VWS V13.01,2013-07-29 15:00:00,
2013-07-29 08:20:00,74.3,49.1,0.00,North,2,4.9,6.3,41,0.00,,---,0.00,VWS V13.01,2013-07-29 15:20:00,
2013-07-29 08:40:00,75.6,46.8,0.00,ESE,123,3.1,6.3,36,0.00,,---,0.00,VWS V13.01,2013-07-29 15:40:00,
2013-07-29 09:00:00,76.6,46.2,0.00,NNW,340,3.1,6.3,34,0.00,,---,0.00,VWS V13.01,2013-07-29 16:00:00,
2013-07-29 09:20:00,77.7,44.7,0.00,NNW,340,3.6,6.3,31,0.00,,---,0.00,VWS V13.01,2013-07-29 16:20:00,
2013-07-29 09:40:00,77.9,44.9,0.00,ENE,68,0.0,6.3,31,0.00,,---,0.00,VWS V13.01,2013-07-29 16:40:00,
2013-07-29 10:00:00,78.6,44.6,0.00,NE,49,3.1,6.7,30,0.00,,---,0.00,VWS V13.01,2013-07-29 17:00:00,
2013-07-29 10:20:00,79.2,40.3,0.00,SW,230,5.4,5.4,25,0.00,,---,0.00,VWS V13.01,2013-07-29 17:20:00,
2013-07-29 11:00:00,80.8,38.4,0.00,SE,135,0.0,4.0,22,0.00,,---,0.00,VWS V13.01,2013-07-29 18:00:00,
2013-07-29 11:20:00,81.5,39.0,0.00,SSW,212,0.0,5.8,22,0.00,,---,0.00,VWS V13.01,2013-07-29 18:20:00,
2013-07-29 11:40:00,82.4,39.8,0.00,SW,230,3.1,8.1,22,0.00,,---,0.00,VWS V13.01,2013-07-29 18:40:00,
2013-07-29 12:00:00,83.7,39.6,0.00,SSW,196,2.7,8.3,21,0.00,,---,0.00,VWS V13.01,2013-07-29 19:00:00,
2013-07-29 12:20:00,85.1,39.6,0.00,SE,131,7.6,8.1,20,0.00,,---,0.00,VWS V13.01,2013-07-29 19:20:00,
2013-07-29 12:40:00,86.2,39.1,0.00,NE,45,5.4,8.7,19,0.00,,---,0.00,VWS V13.01,2013-07-29 19:40:00,
2013-07-29 13:00:00,88.0,40.6,0.00,West,272,3.6,8.7,19,0.00,,---,0.00,VWS V13.01,2013-07-29 20:00:00,
2013-07-29 13:20:00,89.6,40.5,0.00,SW,227,0.0,7.6,18,0.00,,---,0.00,VWS V13.01,2013-07-29 20:20:00,
2013-07-29 13:40:00,89.4,40.4,0.00,ESE,117,3.1,7.6,18,0.00,,---,0.00,VWS V13.01,2013-07-29 20:40:00,
2013-07-29 14:00:00,89.8,39.2,0.00,ESE,119,3.1,7.6,17,0.00,,---,0.00,VWS V13.01,2013-07-29 21:00:00,
2013-07-29 15:00:00,93.2,40.4,0.00,WNW,293,3.6,10.5,16,0.00,,---,0.00,VWS V13.01,2013-07-29 22:00:00,
2013-07-29 15:20:00,93.6,40.7,0.00,SW,234,4.0,10.5,16,0.00,,---,0.00,VWS V13.01,2013-07-29 22:20:00,
2013-07-29 15:40:00,93.0,36.8,0.00,ENE,58,4.0,11.0,14,0.00,,---,0.00,VWS V13.01,2013-07-29 22:40:00,
2013-07-29 16:00:00,91.9,36.0,0.00,WNW,298,5.8,10.5,14,0.00,,---,0.00,VWS V13.01,2013-07-29 23:00:00,
2013-07-29 16:20:00,92.7,36.5,0.00,WNW,294,3.6,11.0,14,0.00,,---,0.00,VWS V13.01,2013-07-29 23:20:00,
2013-07-29 16:40:00,92.7,36.5,0.00,NW,319,8.1,8.7,14,0.00,,---,0.00,VWS V13.01,2013-07-29 23:40:00,
2013-07-29 17:00:00,91.6,35.7,0.00,NW,326,8.3,10.5,14,0.00,,---,0.00,VWS V13.01,2013-07-30 00:00:00,
2013-07-29 18:00:00,88.7,35.2,0.00,NW,313,2.7,8.1,15,0.00,,---,0.00,VWS V13.01,2013-07-30 01:00:00,
2013-07-29 18:20:00,87.6,35.9,0.00,WSW,256,5.4,10.1,16,0.00,,---,0.00,VWS V13.01,2013-07-30 01:20:00,
2013-07-29 19:40:00,83.5,36.9,0.00,WSW,244,5.8,7.2,19,0.00,,---,0.00,VWS V13.01,2013-07-30 02:40:00,
2013-07-29 20:00:00,82.4,36.0,0.00,SW,235,3.1,5.8,19,0.00,,---,0.00,VWS V13.01,2013-07-30 03:00:00,
2013-07-29 20:20:00,81.5,35.3,0.00,SW,214,3.6,5.8,19,0.00,,---,0.00,VWS V13.01,2013-07-30 03:20:00,
2013-07-29 20:40:00,81.1,35.0,0.00,SW,216,4.9,6.7,19,0.00,,---,0.00,VWS V13.01,2013-07-30 03:40:00,
2013-07-29 21:00:00,80.8,34.7,0.00,SW,224,3.1,6.3,19,0.00,,---,0.00,VWS V13.01,2013-07-30 04:00:00,
2013-07-29 21:20:00,80.2,35.6,0.00,SW,234,0.0,5.4,20,0.00,,---,0.00,VWS V13.01,2013-07-30 04:20:00,
2013-07-29 21:40:00,79.5,35.0,0.00,SE,138,0.0,6.3,20,0.00,,---,0.00,VWS V13.01,2013-07-30 04:40:00,
2013-07-29 22:00:00,78.8,34.4,0.00,SE,138,0.0,0.0,20,0.00,,---,0.00,VWS V13.01,2013-07-30 05:00:00,
2013-07-29 22:20:00,77.9,34.9,0.00,SE,138,0.0,0.0,21,0.00,,---,0.00,VWS V13.01,2013-07-30 05:20:00,
2013-07-29 22:40:00,77.5,34.6,0.00,SE,138,0.0,0.0,21,0.00,,---,0.00,VWS V13.01,2013-07-30 05:40:00,
2013-07-29 23:00:00,76.8,35.1,0.00,SE,138,0.0,0.0,22,0.00,,---,0.00,VWS V13.01,2013-07-30 06:00:00,
2013-07-29 23:20:00,75.7,35.3,0.00,SE,138,0.0,0.0,23,0.00,,---,0.00,VWS V13.01,2013-07-30 06:20:00,
2013-07-29 23:40:00,74.8,37.7,0.00,SW,235,0.0,0.0,26,0.00,,---,0.00,VWS V13.01,2013-07-30 06:40:00,